This demonstration page uses our WeatherBlox Daily Observations layout. Learn more.

Left ArrowRight Arrow

Hourly Observations for March 4, 2020

Temp ( °F °C ) Dew Point ( °F °C ) Humidity (%) Winds ( mph kmh ) Pressure ( in mb ) Visibility ( mi km ) Precip ( " mm )
12:51 am 00:51 Clear 45 7.2 42 5.6 90 90 SSE 5 7 29.89 1012 10 16 0.00 0.00
1:51 am 01:51 Clear 41 5 38 3.3 89 89 ENE 5 7 29.91 1013 10 16 0.00 0.00
2:51 am 02:51 Clear 41 5 39 3.9 93 93 Calm 29.92 1013 10 16 0.00 0.00
3:51 am 03:51 Clear 39 3.9 38 3.3 96 96 N 5 7 29.92 1013 10 16 0.00 0.00
4:51 am 04:51 Clear 38 3.3 37 2.8 97 97 Calm 29.94 1014 10 16 0.00 0.00
5:51 am 05:51 Clear 37 2.8 36 2.2 96 96 Calm 29.98 1015 10 16 0.00 0.00
6:51 am 06:51 Sunny 39 3.9 36 2.2 89 89 E 7 11 30.03 1017 10 16 0.00 0.00
7:51 am 07:51 Sunny 44 6.7 39 3.9 83 83 ESE 6 9 30.07 1018 10 16 0.00 0.00
8:51 am 08:51 Sunny 48 8.9 38 3.3 68 68 SE 8 13 30.09 1019 10 16 0.00 0.00
9:51 am 09:51 Sunny 53 11.7 39 3.9 59 59 VRB 6 9 30.10 1019 10 16 0.00 0.00
10:51 am 10:51 Sunny 58 14.4 38 3.3 48 48 VRB 5 7 30.11 1020 10 16 0.00 0.00
11:51 am 11:51 Sunny 60 15.6 35 1.7 39 39 SW 6 9 30.09 1019 10 16 0.00 0.00
12:51 pm 12:51 Sunny 64 17.8 35 1.7 34 34 SSE 8 13 30.06 1018 10 16 0.00 0.00
1:51 pm 13:51 Sunny 67 19.4 35 1.7 31 31 S 3 6 30.04 1017 10 16 0.00 0.00
2:51 pm 14:51 Sunny 68 20 33 0.6 27 27 VRB 6 9 30.01 1016 10 16 0.00 0.00
3:51 pm 15:51 Sunny 70 21.1 31 -0.6 23 23 VRB 5 7 30.01 1016 10 16 0.00 0.00
4:51 pm 16:51 Sunny 70 21.1 26 -3.3 19 19 Calm 30.01 1016 10 16 0.00 0.00
5:51 pm 17:51 Sunny 68 20 27 -2.8 21 21 S 5 7 30.02 1017 10 16 0.00 0.00
6:51 pm 18:51 Clear 60 15.6 30 -1.1 32 32 SSE 7 11 30.05 1018 10 16 0.00 0.00
7:51 pm 19:51 Clear 53 11.7 33 0.6 47 47 E 6 9 30.08 1019 10 16 0.00 0.00
8:51 pm 20:51 Clear 51 10.6 33 0.6 50 50 Calm 30.10 1019 10 16 0.00 0.00
9:51 pm 21:51 Clear 49 9.4 34 1.1 56 56 E 9 15 30.11 1020 10 16 0.00 0.00
10:51 pm 22:51 Clear 48 8.9 34 1.1 58 58 ESE 6 9 30.11 1020 10 16 0.00 0.00
11:51 pm 23:51 Clear 48 8.9 34 1.1 58 58 E 8 13 30.11 1020 10 16 0.00 0.00

Powered by AerisWeather